Nashua, NH

5:59 PM EST on January 22, 2018 (GMT -0500)
Boire

Weather History for KASH - June, 2014

Change the Weather History Date:

Thursday, June 12, 2014

  Actual Average Record
Temperature  
Mean Temperature 64 °F -  
Max Temperature 70 °F 77 °F 95 °F (2017)
Min Temperature 59 °F 50 °F 34 °F (1972)
Degree Days  
Heating Degree Days 1    
Growing Degree Days 14 (Base 50)    
Moisture  
Dew Point 55 °F    
Average Humidity 76    
Maximum Humidity 100    
Minimum Humidity 62    
Precipitation  
Precipitation 0.01 in - - ()
Sea Level Pressure  
Sea Level Pressure 30.62 in    
Wind  
Wind Speed 7 mph (East)    
Max Wind Speed 13 mph    
Max Gust Speed -    
Visibility 9 miles    
Events Rain    
Averages and records for this station are not official NWS values.
T = Trace of Precipitation, MM = Missing Value Source: NWS Daily Summary

Daily Weather History Graph

Daily Weather History Graph

Search for Another Location

Airport or City:

Trip Planner

Search our weather history database for the weather conditions in past years. The results will help you decide how hot, cold, wet, or windy it might be!

Date:

Astronomy

Jun. 12, 2014 Rise Set
Actual Time 5:07 AM EDT 8:24 PM EDT
Civil Twilight 4:32 AM EDT 8:59 PM EDT
Nautical Twilight 3:46 AM EDT 9:45 PM EDT
Astronomical Twilight 2:51 AM EDT 10:40 PM EDT
Moon 7:52 PM EDT (6/12) 4:47 AM EDT (6/12)
Length of Visible Light 16h 27m
Length of Day
15h 17m
Full, 100% of the Moon is Illuminated
Jun 12
Full
Jun 13
Full
Jun 19
Last Quarter
Jun 27
New
Jul 5
First Quarter

Hourly Weather History & Observations

Time (EDT) Temp. Dew Point Humidity Pressure Visibility Wind Dir Wind Speed Gust Speed Precip Events Conditions
12:51 AM 61.0 °F 47.8 °F 62% 30.89 in 10.0 mi ESE 6.9 mph - N/A   Overcast
1:51 AM 61.0 °F 48.9 °F 64% 30.90 in 10.0 mi SE 3.5 mph - N/A   Overcast
3:51 AM 59.9 °F 50.0 °F 70% 30.88 in 10.0 mi East 4.6 mph - N/A   Mostly Cloudy
4:27 AM 59.0 °F 50.0 °F 72% 30.15 in 10.0 mi East 3.5 mph - N/A   Mostly Cloudy
4:51 AM 59.9 °F 50.0 °F 70% 30.88 in 10.0 mi East 5.8 mph - N/A   Overcast
5:00 AM 60.8 °F 50.0 °F 68% 30.15 in 10.0 mi East 4.6 mph - N/A   Overcast
5:51 AM 59.0 °F 50.9 °F 74% 30.90 in 10.0 mi East 4.6 mph - N/A   Overcast
6:51 AM 59.9 °F 50.9 °F 72% 30.90 in 10.0 mi East 6.9 mph - N/A   Overcast
7:51 AM 59.0 °F 52.9 °F 80% 30.89 in 8.0 mi East 9.2 mph - 0.00 in Rain Light Rain
8:44 AM 60.8 °F 53.6 °F 77% 30.17 in 10.0 mi East 6.9 mph - 0.00 in   Mostly Cloudy
8:51 AM 59.9 °F 54.0 °F 81% 30.91 in 10.0 mi East 6.9 mph - 0.00 in   Mostly Cloudy
11:51 AM 65.8 °F 54.9 °F 68% 30.90 in 10.0 mi SE 9.2 mph - N/A   Overcast
12:51 PM 68.0 °F 55.9 °F 65% 30.88 in 10.0 mi ESE 10.4 mph - N/A   Overcast
2:18 PM 69.8 °F 57.2 °F 64% 30.12 in 10.0 mi SE 9.2 mph - N/A   Overcast
2:39 PM 69.8 °F 57.2 °F 64% 30.12 in 10.0 mi ESE 12.7 mph - N/A   Overcast
2:51 PM 68.9 °F 57.9 °F 68% 30.85 in 10.0 mi SE 8.1 mph - N/A   Overcast
3:51 PM 66.9 °F 57.9 °F 73% 30.84 in 10.0 mi East 11.5 mph - N/A   Overcast
4:51 PM 66.9 °F 56.8 °F 70% 30.83 in 10.0 mi ESE 8.1 mph - N/A   Overcast
4:58 PM 66.2 °F 57.2 °F 73% 30.09 in 10.0 mi ESE 9.2 mph - N/A   Overcast
5:51 PM 64.9 °F 56.8 °F 75% 30.82 in 10.0 mi ESE 9.2 mph - N/A   Overcast
6:51 PM 63.9 °F 57.9 °F 81% 30.82 in 7.0 mi ESE 10.4 mph - N/A   Overcast
7:51 PM 63.9 °F 56.8 °F 78% 30.82 in 10.0 mi ESE 8.1 mph - N/A   Overcast
8:10 PM 62.6 °F 59.0 °F 88% 30.09 in 4.0 mi East 9.2 mph - N/A   Overcast
8:51 PM 61.0 °F 59.9 °F 96% 30.83 in 2.5 mi ENE 4.6 mph - 0.01 in Rain Light Rain
8:58 PM 60.8 °F 60.8 °F 100% 30.09 in 4.0 mi East 3.5 mph - 0.00 in   Overcast
9:51 PM 61.0 °F 59.9 °F 96% 30.83 in 10.0 mi NE 4.6 mph - 0.00 in   Overcast
10:29 PM 60.8 °F 60.8 °F 100% 30.09 in 10.0 mi East 5.8 mph - N/A   Mostly Cloudy
11:51 PM 61.9 °F 57.9 °F 87% 30.81 in 10.0 mi East 6.9 mph - N/A   Overcast